Weather History for Hailey, ID

Change the Weather History Date:

Tuesday, February 26, 2013

  Actual Average Record
Temperature  
Mean Temperature 22 °F -  
Max Temperature 30 °F 37 °F 46 °F (2014)
Min Temperature 14 °F 15 °F 3 °F (2002)
Degree Days  
Heating Degree Days 43    
Moisture  
Dew Point 10 °F    
Average Humidity 68    
Maximum Humidity 80    
Minimum Humidity 40    
Precipitation  
Precipitation 0.00 in - - ()
Sea Level Pressure  
Sea Level Pressure 30.13 in    
Wind  
Wind Speed 8 mph (NW)    
Max Wind Speed 15 mph    
Max Gust Speed -    
Visibility 10 miles    
Events      
Averages and records for this station are not official NWS values.
T = Trace of Precipitation, MM = Missing Value Source: NWS Daily Summary

Daily Weather History Graph

Daily Weather History Graph

Search for Another Location

Airport:

Trip Planner

Search our weather history database for the weather conditions in past years. The results will help you decide how hot, cold, wet, or windy it might be!

Date:

Astronomy

Feb. 26, 2013 Rise Set
Actual Time 7:18 AM MST 6:22 PM MST
Civil Twilight 6:49 AM MST 6:51 PM MST
Nautical Twilight 6:16 AM MST 7:24 PM MST
Astronomical Twilight 5:42 AM MST 7:57 PM MST
Moon 7:47 PM MST 7:19 AM MST
Length of Visible Light 12h 02m
Length of Day
11h 04m
Full, 99% of the Moon is Illuminated
Feb 26
Full
Mar 4
Last Quarter
Mar 11
New
Mar 19
First Quarter
Mar 27
Full

Hourly Weather History & Observations

Time (MST) Temp. Windchill Dew Point Humidity Pressure Visibility Wind Dir Wind Speed Gust Speed Precip Events Conditions
12:15 AM 19.4 °F 10.4 °F 14.0 °F 80% 30.00 in 10.0 mi NW 6.9 mph - N/A   Clear
12:35 AM 17.6 °F 8.2 °F 12.2 °F 79% 30.00 in 10.0 mi NW 6.9 mph - N/A   Clear
12:55 AM 17.6 °F 8.2 °F 12.2 °F 79% 30.00 in 10.0 mi NW 6.9 mph - N/A   Clear
1:15 AM 17.6 °F 8.2 °F 12.2 °F 79% 30.00 in 10.0 mi NW 6.9 mph - N/A   Clear
1:35 AM 17.6 °F 7.3 °F 12.2 °F 79% 30.01 in 10.0 mi NW 8.1 mph - N/A   Clear
1:55 AM 17.6 °F 7.3 °F 12.2 °F 79% 30.01 in 10.0 mi NW 8.1 mph - N/A   Clear
2:15 AM 17.6 °F 7.3 °F 12.2 °F 79% 30.02 in 10.0 mi NW 8.1 mph - N/A   Clear
2:35 AM 17.6 °F 7.3 °F 10.4 °F 73% 30.02 in 10.0 mi NW 8.1 mph - N/A   Clear
2:55 AM 17.6 °F 5.7 °F 10.4 °F 73% 30.03 in 10.0 mi WNW 10.4 mph - N/A   Clear
3:15 AM 15.8 °F 3.4 °F 10.4 °F 79% 30.03 in 10.0 mi NW 10.4 mph - N/A   Clear
3:35 AM 17.6 °F 5.7 °F 10.4 °F 73% 30.04 in 10.0 mi WNW 10.4 mph - N/A   Clear
3:55 AM 15.8 °F 4.2 °F 10.4 °F 79% 30.04 in 10.0 mi NW 9.2 mph - N/A   Clear
4:15 AM 15.8 °F 5.1 °F 10.4 °F 79% 30.05 in 10.0 mi NNW 8.1 mph - N/A   Clear
4:35 AM 14.0 °F 2.9 °F 8.6 °F 79% 30.06 in 10.0 mi NW 8.1 mph - N/A   Clear
4:55 AM 17.6 °F 4.3 °F 10.4 °F 73% 30.06 in 10.0 mi WNW 12.7 mph - N/A   Clear
5:15 AM 14.0 °F 2.0 °F 8.6 °F 79% 30.07 in 10.0 mi NNW 9.2 mph - N/A   Clear
5:35 AM 15.8 °F 4.2 °F 8.6 °F 73% 30.08 in 10.0 mi NNW 9.2 mph - N/A   Clear
5:55 AM 15.8 °F 2.7 °F 8.6 °F 73% 30.08 in 10.0 mi NNW 11.5 mph - N/A   Clear
6:47 AM 15.8 °F 2.7 °F 6.8 °F 68% 30.11 in 10.0 mi WNW 11.5 mph - N/A   Clear
7:47 AM 14.0 °F 2.0 °F 6.8 °F 73% 30.12 in 10.0 mi WNW 9.2 mph - N/A   Partly Cloudy
8:47 AM 17.6 °F 4.3 °F 6.8 °F 63% 30.13 in 10.0 mi WNW 12.7 mph - N/A   Clear
9:47 AM 21.2 °F 10.9 °F 8.6 °F 58% 30.15 in 10.0 mi WNW 9.2 mph - N/A   Clear
10:47 AM 26.6 °F 21.2 °F 8.6 °F 47% 30.16 in 10.0 mi NW 4.6 mph - N/A   Partly Cloudy
11:47 AM 28.4 °F 17.5 °F 12.2 °F 51% 30.17 in 10.0 mi SE 13.8 mph - N/A   Partly Cloudy
12:50 PM 28.4 °F 21.2 °F 12.2 °F 51% 30.18 in 10.0 mi SE 6.9 mph - N/A   Partly Cloudy
1:47 PM 30.2 °F 22.6 °F 12.2 °F 47% 30.17 in 10.0 mi ESE 8.1 mph - N/A   Partly Cloudy
2:47 PM 30.2 °F 19.3 °F 15.8 °F 55% 30.17 in 10.0 mi SE 15.0 mph - N/A   Scattered Clouds
4:47 PM 30.2 °F 25.4 °F 8.6 °F 40% 30.19 in 10.0 mi SSE 4.6 mph - N/A   Partly Cloudy
5:47 PM 26.6 °F - 8.6 °F 47% 30.20 in 10.0 mi Calm Calm - N/A   Partly Cloudy
6:50 PM 26.6 °F - 10.4 °F 51% 30.21 in 10.0 mi Calm Calm - N/A   Partly Cloudy
7:55 PM 24.8 °F - 10.4 °F 54% 30.23 in 10.0 mi Calm Calm - N/A   Clear
8:47 PM 19.4 °F - 8.6 °F 63% 30.24 in 10.0 mi Calm Calm - N/A   Clear
9:47 PM 19.4 °F 11.5 °F 10.4 °F 68% 30.25 in 10.0 mi WNW 5.8 mph - N/A   Clear
10:15 PM 19.4 °F 11.5 °F 10.4 °F 68% 30.26 in 10.0 mi NW 5.8 mph - N/A   Clear
10:35 PM 19.4 °F 10.4 °F 10.4 °F 68% 30.26 in 10.0 mi NW 6.9 mph - N/A   Clear
10:47 PM 17.6 °F 9.3 °F 10.4 °F 73% 30.26 in 10.0 mi WNW 5.8 mph - N/A   Clear
10:55 PM 17.6 °F 9.3 °F 10.4 °F 73% 30.26 in 10.0 mi NW 5.8 mph - N/A   Clear
11:15 PM 19.4 °F 9.5 °F 10.4 °F 68% 30.26 in 10.0 mi NW 8.1 mph - N/A   Clear
11:35 PM 19.4 °F 9.5 °F 10.4 °F 68% 30.26 in 10.0 mi NW 8.1 mph - N/A   Clear
11:55 PM 17.6 °F 7.3 °F 10.4 °F 73% 30.27 in 10.0 mi NW 8.1 mph - N/A   Clear